Weiss Lake Weather Center

Moon Phase Calendar



Weiss Lake Water Level
Online Cameras

 


      

Current Conditions in Cedar Bluff
7/24/2024 2:39:59 PM

82°F
Feels Like 90
Rain
Humidity
81%
Pressure
30.18"
Wind
0.7 mph (NE)
Dew Point
76°F
UV Index
2/10 (Low)
Visibility
6 mi

Hourly Forecast

Date & Time Wed, Jul 24
2:00 PM
Wed, Jul 24
3:00 PM
Wed, Jul 24
4:00 PM
Wed, Jul 24
5:00 PM
Wed, Jul 24
6:00 PM
Wed, Jul 24
7:00 PM
Wed, Jul 24
8:00 PM
Wed, Jul 24
9:00 PM
Wed, Jul 24
10:00 PM
Wed, Jul 24
11:00 PM
Thu, Jul 25
12:00 AM
Thu, Jul 25
1:00 AM
Thu, Jul 25
2:00 AM
Thu, Jul 25
3:00 AM
Thu, Jul 25
4:00 AM
Thu, Jul 25
5:00 AM
Thu, Jul 25
6:00 AM
Thu, Jul 25
7:00 AM
Thu, Jul 25
8:00 AM
Thu, Jul 25
9:00 AM
Thu, Jul 25
10:00 AM
Thu, Jul 25
11:00 AM
Thu, Jul 25
12:00 PM
Thu, Jul 25
1:00 PM
Thu, Jul 25
2:00 PM
Thu, Jul 25
3:00 PM
Thu, Jul 25
4:00 PM
Thu, Jul 25
5:00 PM
Thu, Jul 25
6:00 PM
Thu, Jul 25
7:00 PM
Thu, Jul 25
8:00 PM
Thu, Jul 25
9:00 PM
Thu, Jul 25
10:00 PM
Thu, Jul 25
11:00 PM
Fri, Jul 26
12:00 AM
Fri, Jul 26
1:00 AM
Fri, Jul 26
2:00 AM
Fri, Jul 26
3:00 AM
Fri, Jul 26
4:00 AM
Fri, Jul 26
5:00 AM
Fri, Jul 26
6:00 AM
Fri, Jul 26
7:00 AM
Fri, Jul 26
8:00 AM
Fri, Jul 26
9:00 AM
Fri, Jul 26
10:00 AM
Fri, Jul 26
11:00 AM
Fri, Jul 26
12:00 PM
Fri, Jul 26
1:00 PM
Condition
Clouds

Clouds

Rain

Rain

Clouds

Clouds

Clouds

Clouds

Clouds

Rain

Clouds

Clouds

Clouds

Clouds

Clouds

Clouds

Clouds

Clouds

Clouds

Clouds

Rain

Rain

Rain

Rain

Rain

Clouds

Clouds

Clouds

Clouds

Clouds

Clouds

Clouds

Clouds

Clouds

Clouds

Clouds

Clouds

Clouds

Clouds

Clouds

Clouds

Clouds

Clouds

Clouds

Clouds

Clouds

Clouds

Clouds
Temperature 81°F82°F81°F79°F77°F75°F72°F72°F71°F71°F69°F69°F70°F69°F69°F69°F69°F70°F73°F78°F78°F79°F78°F80°F80°F78°F76°F75°F76°F73°F71°F69°F70°F70°F68°F68°F67°F67°F67°F66°F66°F69°F71°F70°F76°F80°F82°F83°F
Feels Like 87°F90°F86°F79°F79°F76°F74°F73°F73°F72°F70°F71°F71°F70°F71°F70°F70°F71°F75°F79°F80°F80°F80°F80°F80°F79°F77°F77°F77°F74°F72°F70°F71°F71°F69°F69°F68°F68°F68°F67°F67°F70°F72°F71°F77°F83°F85°F86°F
Cloudiness 100%100%100%100%100%100%100%100%100%100%97%97%100%100%100%100%100%100%100%100%100%100%100%99%97%98%99%98%99%99%89%94%96%94%90%90%100%100%98%99%98%98%100%100%100%100%100%100%
Visibility 6 mi6 mi6 mi6 mi6 mi6 mi6 mi6 mi6 mi6 mi6 mi6 mi6 mi6 mi6 mi6 mi6 mi6 mi6 mi6 mi6 mi6 mi5 mi6 mi6 mi6 mi6 mi6 mi6 mi6 mi6 mi6 mi6 mi6 mi6 mi6 mi6 mi6 mi6 mi6 mi6 mi6 mi6 mi6 mi6 mi6 mi6 mi6 mi
Precipitation 0%0%20%20%0%0%11%0%0%35%8%0%0%0%0%0%0%0%0%0%100%100%100%100%100%90%80%70%61%60%0%0%0%0%0%0%0%0%0%0%0%0%0%0%0%0%0%0%
Humidity 82%81%83%84%86%88%91%91%91%93%95%95%94%95%95%95%96%94%87%80%81%82%84%79%78%80%82%83%80%87%92%94%91%92%95%96%96%96%96%97%97%92%87%90%77%69%66%63%
Dew Point 75°F76°F75°F74°F73°F71°F69°F69°F68°F68°F68°F67°F67°F67°F68°F68°F68°F68°F69°F70°F72°F72°F73°F72°F72°F71°F69°F69°F69°F68°F68°F67°F67°F67°F66°F66°F66°F65°F65°F65°F65°F66°F67°F67°F68°F69°F69°F69°F
Pressure 30.18"30.18"30.18"30.18"30.15"30.15"30.15"30.15"30.18"30.18"30.18"30.18"30.15"30.15"30.15"30.15"30.15"30.15"30.18"30.18"30.18"30.15"30.15"30.15"30.12"30.12"30.12"30.12"30.12"30.12"30.12"30.12"30.12"30.12"30.12"30.09"30.09"30.09"30.09"30.09"30.09"30.09"30.12"30.12"30.12"30.09"30.09"30.09"
Wind Speed 1.4 mph0.7 mph1.1 mph0.4 mph1.4 mph2.3 mph1 mph2 mph1.1 mph2 mph0.8 mph1.2 mph0.7 mph0.7 mph1.7 mph1.7 mph1.1 mph1.9 mph1.3 mph1.7 mph2.4 mph3.4 mph5 mph5.3 mph7.5 mph9 mph5.5 mph3.1 mph2.9 mph2.4 mph2.4 mph1.9 mph1.8 mph1.7 mph1.3 mph1.7 mph2.1 mph2.5 mph2.4 mph1.8 mph1.7 mph1.8 mph2.8 mph2.4 mph4.3 mph6 mph6.7 mph7.5 mph
Wind
Direction

N
44°
NE
92°
E
360°
N
353°
N
338°
NNW

N
308°
NW
269°
W
222°
SW
272°
W
348°
NNW
16°
NNE
97°
E
72°
ENE
43°
NE
38°
NE
76°
ENE
91°
E
129°
SE
186°
S
224°
SW
252°
WSW
268°
W
302°
WNW
311°
NW
315°
NW
295°
WNW
280°
W
287°
WNW
286°
WNW
269°
W
275°
W
289°
WNW
261°
W
268°
W
236°
SW
239°
WSW
249°
WSW
250°
WSW
221°
SW
234°
SW
249°
WSW
253°
WSW
261°
W
273°
W
286°
WNW
295°
WNW

Daily Forecast

Date High Low Precip. Humidity
Today
Jul 24

Rain
82 °F
71 °F
80%
86%
Thursday
Jul 25

Rain
80 °F
69 °F
100%
84%
Friday
Jul 26

Rain
85 °F
66 °F
41%
66%
Saturday
Jul 27

Clouds
93 °F
67 °F
0%
49%
Sunday
Jul 28

Rain
93 °F
71 °F
100%
45%
Monday
Jul 29

Rain
86 °F
72 °F
100%
67%
Tuesday
Jul 30

Rain
90 °F
71 °F
100%
52%
Wednesday
Jul 31

Rain
94 °F
72 °F
100%
50%
Thursday
Aug 1

Rain
93 °F
73 °F
100%
48%
Friday
Aug 2

Clear
94 °F
71 °F
10%
44%
Saturday
Aug 3

Rain
96 °F
72 °F
100%
47%
Sunday
Aug 4

Rain
91 °F
70 °F
100%
61%
Monday
Aug 5

Rain
83 °F
70 °F
100%
79%
Tuesday
Aug 6

Rain
91 °F
70 °F
100%
49%
Wednesday
Aug 7

Rain
91 °F
72 °F
100%
50%
Thursday
Aug 8

Rain
92 °F
72 °F
96%
47%

Temperature 8-14 Day Outlook



Precipitation 8-14 Day Outlook




Quick Links
Weiss Lake News
Weiss Lake Photos
Weiss Lake Videos




About Us
Contact Us
Site Map
Search Site
Advertise With Us
   
www.LakeWeiss.info
THE WEISS LAKE WEBSITE

Copyright 2024, Lakes Online
Privacy    |    Legal